TimeMST,TemperatureF,Dew PointF,Humidity,Sea Level PressureIn,VisibilityMPH,Wind Direction,Wind SpeedMPH,Gust SpeedMPH,PrecipitationIn,Events,Conditions,WindDirDegrees,DateUTC
12:53 AM,34.0,25.0,70,30.20,10.0,Calm,Calm,-,N/A,,Partly Cloudy,0,2012-11-16 07:53:00
1:53 AM,30.9,23.0,72,30.20,10.0,Calm,Calm,-,N/A,,Clear,0,2012-11-16 08:53:00
2:53 AM,30.9,25.0,79,30.18,10.0,Calm,Calm,-,N/A,,Mostly Cloudy,0,2012-11-16 09:53:00
3:53 AM,33.1,26.1,75,30.17,10.0,Calm,Calm,-,N/A,,Overcast,0,2012-11-16 10:53:00
4:53 AM,34.0,26.1,73,30.18,10.0,Calm,Calm,-,N/A,,Overcast,0,2012-11-16 11:53:00
5:53 AM,34.0,26.1,73,30.21,10.0,Calm,Calm,-,N/A,,Overcast,0,2012-11-16 12:53:00
6:53 AM,33.1,26.1,75,30.25,10.0,Calm,Calm,-,N/A,,Mostly Cloudy,0,2012-11-16 13:53:00
7:53 AM,36.0,27.0,70,30.27,10.0,Calm,Calm,-,N/A,,Partly Cloudy,0,2012-11-16 14:53:00
8:53 AM,46.9,21.0,36,30.24,10.0,ENE,3.5,-,N/A,,Clear,70,2012-11-16 15:53:00
9:53 AM,54.0,19.9,26,30.19,10.0,Calm,Calm,-,N/A,,Partly Cloudy,0,2012-11-16 16:53:00
10:53 AM,57.0,19.0,23,30.14,10.0,SW,9.2,-,N/A,,Clear,220,2012-11-16 17:53:00
11:53 AM,61.0,19.0,20,30.09,10.0,WSW,9.2,-,N/A,,Clear,240,2012-11-16 18:53:00
12:53 PM,61.0,19.9,21,30.04,10.0,SSW,11.5,19.6,N/A,,Mostly Cloudy,210,2012-11-16 19:53:00
1:53 PM,61.0,21.0,21,30.06,10.0,SSW,13.8,18.4,N/A,,Mostly Cloudy,200,2012-11-16 20:53:00
2:53 PM,62.1,21.9,21,30.03,10.0,WSW,15.0,-,N/A,,Mostly Cloudy,240,2012-11-16 21:53:00
3:53 PM,60.1,19.0,20,30.04,10.0,SW,15.0,-,N/A,,Mostly Cloudy,230,2012-11-16 22:53:00
4:53 PM,55.9,17.1,22,30.06,10.0,SW,6.9,-,N/A,,Clear,230,2012-11-16 23:53:00
5:53 PM,44.1,19.9,38,30.16,10.0,South,3.5,-,N/A,,Clear,190,2012-11-17 00:53:00
6:53 PM,42.1,19.9,41,30.18,10.0,Calm,Calm,-,N/A,,Clear,0,2012-11-17 01:53:00
7:53 PM,36.0,19.0,50,30.21,10.0,Calm,Calm,-,N/A,,Clear,0,2012-11-17 02:53:00
8:53 PM,35.1,21.0,57,30.16,10.0,Calm,Calm,-,N/A,,Clear,0,2012-11-17 03:53:00
9:53 PM,33.1,21.9,64,30.13,10.0,ENE,4.6,-,N/A,,Clear,60,2012-11-17 04:53:00
10:53 PM,30.9,21.0,67,30.14,10.0,NE,4.6,-,N/A,,Clear,50,2012-11-17 05:53:00
11:53 PM,32.0,23.0,69,30.10,10.0,Calm,Calm,-,N/A,,Clear,0,2012-11-17 06:53:00